TimeCST,TemperatureF,Dew PointF,Humidity,Sea Level PressureIn,VisibilityMPH,Wind Direction,Wind SpeedMPH,Gust SpeedMPH,PrecipitationIn,Events,Conditions,WindDirDegrees,DateUTC
12:53 AM,54.0,51.1,90,30.13,10.0,Calm,Calm,-,N/A,,Clear,0,2012-11-07 06:53:00
1:53 AM,53.1,50.0,89,30.13,10.0,West,3.5,-,N/A,,Clear,280,2012-11-07 07:53:00
2:53 AM,53.1,50.0,89,30.12,10.0,Calm,Calm,-,N/A,,Clear,0,2012-11-07 08:53:00
3:53 AM,51.1,48.9,92,30.11,10.0,Calm,Calm,-,N/A,,Clear,0,2012-11-07 09:53:00
4:53 AM,51.1,48.0,89,30.12,10.0,Calm,Calm,-,N/A,,Clear,0,2012-11-07 10:53:00
5:53 AM,50.0,48.0,93,30.13,10.0,Calm,Calm,-,N/A,,Clear,0,2012-11-07 11:53:00
6:53 AM,50.0,46.9,89,30.15,10.0,Calm,Calm,-,N/A,,Clear,0,2012-11-07 12:53:00
7:53 AM,57.0,50.0,77,30.17,10.0,Calm,Calm,-,N/A,,Clear,0,2012-11-07 13:53:00
8:53 AM,66.0,50.0,56,30.18,10.0,Calm,Calm,-,N/A,,Clear,0,2012-11-07 14:53:00
9:53 AM,71.1,52.0,51,30.18,10.0,East,3.5,-,N/A,,Clear,80,2012-11-07 15:53:00
10:53 AM,73.9,54.0,50,30.17,10.0,Calm,Calm,-,N/A,,Clear,0,2012-11-07 16:53:00
11:53 AM,75.9,53.1,45,30.14,10.0,Calm,Calm,-,N/A,,Clear,0,2012-11-07 17:53:00
12:53 PM,78.1,48.9,36,30.10,10.0,Variable,3.5,-,N/A,,Clear,0,2012-11-07 18:53:00
1:53 PM,79.0,48.9,35,30.06,10.0,Variable,3.5,-,N/A,,Clear,0,2012-11-07 19:53:00
2:53 PM,80.1,48.9,34,30.05,10.0,Variable,3.5,-,N/A,,Clear,0,2012-11-07 20:53:00
3:53 PM,81.0,51.1,35,30.04,10.0,Calm,Calm,-,N/A,,Clear,0,2012-11-07 21:53:00
5:53 PM,72.0,54.0,53,30.05,10.0,Calm,Calm,-,N/A,,Clear,0,2012-11-07 23:53:00
6:53 PM,66.9,54.0,63,30.06,10.0,Calm,Calm,-,N/A,,Clear,0,2012-11-08 00:53:00
7:53 PM,64.0,54.0,70,30.07,10.0,Calm,Calm,-,N/A,,Clear,0,2012-11-08 01:53:00
8:53 PM,61.0,55.0,81,30.08,10.0,Calm,Calm,-,N/A,,Clear,0,2012-11-08 02:53:00
9:53 PM,64.0,54.0,70,30.09,10.0,SE,3.5,-,N/A,,Clear,140,2012-11-08 03:53:00
10:53 PM,61.0,54.0,78,30.09,10.0,Calm,Calm,-,N/A,,Clear,0,2012-11-08 04:53:00
11:53 PM,62.1,55.0,78,30.08,10.0,SE,3.5,-,N/A,,Clear,130,2012-11-08 05:53:00